Regional Weather Roundup
Issued by NWS Newport/Morehead, NC

Current Version | Previous Version | Graphics & Text | Print | Product List | Glossary On
Versions: 1 2 3 4 5 6 7 8 9 10 11 12 13 14 15 16 17 18 19 20 21 22 23 24 25 26 27 28 29 30 31 32 33 34 35 36 37 38 39 40 41 42 43 44 45 46 47 48 49 50
000 ASUS42 KMHX 250513 RWRMHX WEATHER ROUNDUP FOR EASTERN NORTH CAROLINA NATIONAL WEATHER SERVICE NEWPORT/MOREHEAD CITY NC 100 AM EDT MON MAY 25 2015 NOTE: "FAIR" INDICATES FEW OR NO CLOUDS BELOW 12,000 FEET WITH NO SIGNIFICANT WEATHER AND/OR OBSTRUCTIONS TO VISIBILITY NCZ015>017-031-032-045>047-102-103-250600- NORTH COAST CITY SKY/WX TMP DP RH WIND PRES REMARKS EDENTON CLEAR 66 60 80 S6 30.35S ELIZABETH CITY CLEAR 65 58 78 S6 30.34F KITTY HAWK CLEAR 65 56 72 S3 30.34F MANTEO CLEAR 66 57 74 S6 30.35F $$ NCZ045>047-081-094-103-104-250600- CENTRAL COAST CITY SKY/WX TMP DP RH WIND PRES REMARKS FRISCO CLEAR 61 56 83 E3 30.35F SWANQUARTER N/A 70 N/A N/A SE8 30.33S $$ NCZ095-097-098-100-101-250600- SOUTHERN COAST CITY SKY/WX TMP DP RH WIND PRES REMARKS BEAUFORT CLEAR 69 59 70 SE5 30.35S CEDAR ISLAND N/A 70 N/A N/A S2 30.39S JACKSONVILLE CLEAR 65 60 84 S3 30.34F PINEY ISLAND CLEAR N/A N/A N/A S5 30.35S WILMINGTON CLEAR 64 60 87 CALM 30.33F $$ NCZ011>013-027>030-043-044-078>080-089-090>093-098-250600- COASTAL PLAIN CITY SKY/WX TMP DP RH WIND PRES REMARKS AHOSKIE CLEAR 62 55 78 CALM 30.34F CLINTON CLEAR 62 60 92 CALM 30.35F ELIZABETHTOWN CLEAR 64 57 80 CALM 30.35S GOLDSBORO CLEAR 66 60 82 CALM 30.32F GREENVILLE CLEAR 64 59 82 S3 30.35S HAVELOCK CLEAR 61 57 87 CALM 30.36S KENANSVILLE CLEAR 59 57 93 CALM 30.36S KINSTON CLEAR 63 59 87 CALM 30.35F NEW BERN CLEAR 60 56 86 CALM 30.36S RICHLANDS CLEAR 59 54 82 CALM 30.35S ROCKY MOUNT CLEAR 65 57 75 S3 30.35S WASHINGTON CLEAR 66 58 77 S3 30.35F WHITEVILLE CLEAR 60 57 89 CALM 30.34S $$ AMZ130-135-150-152-154-156-158-170-250-252-270-ANZ085-086-088-633-658-670-250600- MARINE OBSERVATIONS STATION/POSITION TIME TEMP WIND PRES WAVE SWELL AIR SEA DIR/SP/G HT/PER HT/PER (UTC) (F) (DEG/KT/KT) (MB) (FT/S) (FT/S) CHESAPEAKE LIGHT 0400 66 190/ 17/ 18 1027.4 64 E VA BEACH 0450 65 62 170/ 8/ 10 1027.0 1/ 7 2/ 7 DUCK 0400 65 63 160/ 6/ 7 1026.8 2 E DUCK 0411 64 N/A 1/ 6 OREGON INLET 0400 65 74 130/ 4/ 5 1028.0 13E OREGON INLT 0500 66 N/A 2/ 6 HATTERAS CG 0400 68 75 80/ 3/ 3 1027.5 DIAMOND BUOY 0450 74 77 120/ 8/ 10 1027.7 2/ 7 2/ 7 CAPE LOOKOUT 0500 72 130/ 10/ 11 1027.4 BEAUFORT LAB 0400 72 75 150/ 6/ 8 1027.0 27 SE WRIGHTSVLE 0400 71 77 140/ 10/ 12 N/A 5 SE WRIGHTSVLE 0408 74 76 140/ 12/ 17 1027.3 225 S CAPE HAT 0450 73 74 110/ 14/ 17 1026.5 4/ 6 2/ 9 41 SE CHARLESTON 0450 74 75 110/ 16/ 19 1025.3 5/ 7 2/ 8 $$

USA.gov is the U.S. government's official web portal to all federal, state and local government web resources and services.